1501538400.69,21460,21.69,75042.3,8.89,-16.17,-16.55,0,*73
1501538401.94,21461,21.69,75042.8,8.89,-16.23,-16.55,0,*75
1501538403.21,21462,21.69,75046.0,8.89,-16.23,-16.65,0,*75
1501538404.48,21463,21.69,75042.3,8.89,-16.17,-16.65,0,*73
1501538405.7,21464,21.69,75042.8,8.87,-16.23,-16.55,0,*7E
1501538406.95,21465,21.69,75042.5,8.87,-16.09,-16.51,0,*73
1501538408.18,21466,21.69,75040.5,8.87,-16.09,-16.55,0,*74
1501538409.45,21467,21.69,75038.8,8.89,-16.17,-16.51,0,*70
1501538410.7,21468,21.69,75042.8,8.89,-16.23,-16.55,0,*7C
1501538411.95,21469,21.69,75042.3,8.89,-16.17,-16.55,0,*7A
1501538413.22,21470,21.69,75044.8,8.89,-16.17,-16.51,0,*76
1501538414.46,21471,21.69,75042.0,8.87,-16.17,-16.51,0,*79
1501538415.71,21472,21.69,75040.5,8.87,-16.17,-16.51,0,*7A
1501538416.96,21473,21.69,75044.0,8.89,-16.09,-16.41,0,*7B
1501538418.21,21474,21.69,75046.3,8.85,-16.13,-16.45,0,*7F
1501538419.43,21475,21.69,75042.8,8.87,-16.09,-16.41,0,*73
1501538420.63,21476,21.69,75042.3,8.87,-16.03,-16.55,0,*7F
1501538421.88,21477,21.69,75044.0,8.89,-16.09,-16.55,0,*7A
1501538423.11,21478,21.69,75044.0,8.91,-16.09,-16.45,0,*7D
1501538424.32,21479,21.69,75046.3,8.87,-16.03,-16.51,0,*74
1501538425.54,21480,21.69,75040.0,8.91,-16.13,-16.45,0,*71
1501538426.79,21481,21.69,75042.8,8.89,-16.23,-16.55,0,*7B
1501538428.04,21482,21.69,75040.0,8.89,-16.17,-16.55,0,*7F
1501538429.31,21483,21.69,75042.0,8.89,-16.17,-16.51,0,*7A
1501538430.56,21484,21.69,75040.8,8.89,-16.17,-16.55,0,*79
1501538431.81,21485,21.69,75046.0,8.89,-16.17,-16.55,0,*78
1501538433.06,21486,21.69,75038.8,8.89,-16.17,-16.55,0,*7B
1501538434.33,21487,21.69,75046.8,8.89,-16.23,-16.65,0,*7E
1501538435.58,21488,21.69,75040.8,8.87,-16.31,-16.65,0,*7C
1501538436.82,21489,21.69,75044.0,8.87,-16.31,-16.69,0,*71
1501538438.06,21490,21.69,75040.8,8.87,-16.23,-16.69,0,*7A
1501538439.28,21491,21.69,75044.0,8.87,-16.37,-16.69,0,*7E
1501538440.53,21492,21.69,75042.0,8.85,-16.37,-16.69,0,*7F
1501538441.79,21493,21.69,75044.3,8.85,-16.37,-16.69,0,*7E
1501538443.01,21494,21.69,75042.0,8.87,-16.17,-16.55,0,*76
1501538444.26,21495,21.69,75040.8,8.87,-16.09,-16.51,0,*7C
1501538445.51,21496,21.69,75040.5,8.85,-16.13,-16.55,0,*72
1501538446.76,21497,21.69,75040.8,8.89,-16.17,-16.55,0,*7B
1501538448.01,21498,21.63,75040.0,8.87,-16.23,-16.65,0,*7E
1501538449.26,21499,21.69,75040.3,8.85,-16.27,-16.75,0,*78
1501538450.51,21500,21.69,75046.0,8.87,-16.23,-16.65,0,*7E
1501538451.74,21501,21.69,75040.8,8.85,-16.37,-16.75,0,*79
1501538453.01,21502,21.69,75040.3,8.85,-16.27,-16.69,0,*76
1501538454.26,21503,21.69,75042.3,8.87,-16.23,-16.65,0,*7D
1501538455.51,21504,21.69,75040.5,8.85,-16.27,-16.59,0,*73
1501538456.78,21505,21.69,75046.3,8.85,-16.27,-16.69,0,*71
1501538458.01,21506,21.69,75044.5,8.87,-16.17,-16.55,0,*7C
1501538459.26,21507,21.69,75040.3,8.85,-16.27,-16.59,0,*70
1501538460.5,21508,21.69,75040.0,8.87,-16.31,-16.69,0,*79
1501538461.78,21509,21.69,75044.3,8.85,-16.23,-16.69,0,*79
1501538463.03,21510,21.69,75046.3,8.85,-16.23,-16.59,0,*72
1501538464.28,21511,21.69,75042.5,8.85,-16.23,-16.55,0,*7F
1501538465.53,21512,21.69,75042.8,8.87,-16.17,-16.51,0,*7D
1501538466.78,21513,21.69,75040.0,8.85,-16.13,-16.59,0,*72
1501538468.01,21514,21.69,75042.8,8.87,-16.17,-16.55,0,*7F
1501538469.25,21515,21.69,75044.8,8.87,-16.23,-16.65,0,*7A
1501538470.53,21516,21.69,75044.0,8.85,-16.23,-16.69,0,*77
1501538471.75,21517,21.69,75040.8,8.87,-16.23,-16.55,0,*7B
1501538473.02,21518,21.69,75042.3,8.85,-16.27,-16.69,0,*7D
1501538474.3,21519,21.69,75040.5,8.85,-16.27,-16.69,0,*7C
1501538475.52,21520,21.69,75040.5,8.87,-16.17,-16.55,0,*78
1501538476.78,21521,21.69,75042.3,8.85,-16.27,-16.59,0,*74
1501538478.0,21522,21.69,75042.5,8.87,-16.17,-16.55,0,*7A
1501538479.23,21523,21.69,75042.3,8.85,-16.37,-16.59,0,*77
1501538480.48,21524,21.69,75040.5,8.85,-16.27,-16.59,0,*71
1501538481.76,21525,21.69,75040.0,8.85,-16.23,-16.69,0,*77
1501538482.99,21526,21.69,75042.0,8.85,-16.37,-16.75,0,*7C
1501538484.24,21527,21.69,75040.3,8.85,-16.37,-16.69,0,*70
1501538485.51,21528,21.69,75038.8,8.85,-16.23,-16.69,0,*7A
1501538486.77,21529,21.69,75040.3,8.85,-16.27,-16.75,0,*72
1501538488.04,21530,21.69,75042.0,8.85,-16.23,-16.69,0,*73
1501538489.29,21531,21.69,75042.3,8.87,-16.09,-16.51,0,*73
1501538490.55,21532,21.69,75040.8,8.85,-16.13,-16.59,0,*71
1501538491.79,21533,21.69,75042.3,8.87,-16.17,-16.51,0,*7E
1501538493.05,21534,21.69,75042.0,8.85,-16.13,-16.55,0,*7B
1501538494.26,21535,21.69,75040.8,8.85,-15.99,-16.45,0,*7A
1501538495.52,21536,21.69,75042.5,8.85,-16.09,-16.55,0,*72
1501538496.78,21537,21.69,75042.8,8.85,-16.09,-16.59,0,*7F
1501538498.03,21538,21.69,75044.5,8.85,-16.23,-16.59,0,*78
1501538499.29,21539,21.69,75040.5,8.85,-16.13,-16.59,0,*7A
1501538500.53,21540,21.69,75040.0,8.87,-16.17,-16.51,0,*7A
1501538501.78,21541,21.69,75040.5,8.85,-16.23,-16.55,0,*7A
1501538503.04,21542,21.63,75042.5,8.85,-16.13,-16.55,0,*7A
1501538504.3,21543,21.69,75042.8,8.85,-16.13,-16.55,0,*7B
1501538505.54,21544,21.69,75044.0,8.85,-16.13,-16.45,0,*7D
1501538506.8,21545,21.69,75044.0,8.85,-16.13,-16.55,0,*7D
1501538508.06,21546,21.69,75040.3,8.85,-16.09,-16.55,0,*75
1501538509.31,21547,21.69,75046.0,8.85,-16.09,-16.45,0,*75
1501538510.56,21548,21.69,75042.3,8.85,-16.09,-16.41,0,*7E
1501538511.81,21549,21.63,75040.0,8.85,-16.09,-16.45,0,*7B
1501538513.07,21550,21.69,75040.8,8.85,-16.13,-16.55,0,*79
1501538514.3,21551,21.69,75040.8,8.87,-16.09,-16.55,0,*71
1501538515.55,21552,21.69,75042.5,8.85,-16.13,-16.55,0,*7B
1501538516.81,21553,21.69,75040.8,8.85,-16.09,-16.55,0,*71
1501538518.02,21554,21.69,75040.8,8.87,-16.03,-16.51,0,*7A
1501538519.24,21555,21.69,75046.3,8.87,-16.03,-16.51,0,*7B
1501538520.5,21556,21.63,75042.3,8.85,-16.09,-16.41,0,*71
1501538521.75,21557,21.69,75040.8,8.85,-16.09,-16.45,0,*74
1501538522.97,21558,21.63,75040.8,8.87,-16.09,-16.55,0,*78
1501538524.23,21559,21.63,75042.5,8.85,-16.23,-16.59,0,*7F
1501538525.45,21560,21.63,75040.8,8.87,-16.17,-16.55,0,*7C
1501538526.71,21561,21.69,75044.3,8.85,-16.13,-16.55,0,*7B
1501538527.96,21562,21.69,75042.3,8.85,-16.13,-16.55,0,*78
1501538529.22,21563,21.69,75040.5,8.85,-16.13,-16.41,0,*7C
1501538530.47,21564,21.69,75044.0,8.85,-16.13,-16.55,0,*7E
1501538531.73,21565,21.69,75040.3,8.85,-16.13,-16.55,0,*7F
1501538532.98,21566,21.69,75040.0,8.85,-16.13,-16.55,0,*7C
1501538534.24,21567,21.63,75040.8,8.85,-16.13,-16.55,0,*7D
1501538535.49,21568,21.69,75042.5,8.85,-16.09,-16.45,0,*78
1501538536.74,21569,21.69,75042.3,8.85,-16.13,-16.45,0,*72
1501538537.93,21570,21.69,75040.8,8.87,-16.03,-16.41,0,*7D
1501538539.21,21571,21.69,75042.5,8.85,-16.09,-16.51,0,*75
1501538540.4,21572,21.69,75042.3,8.87,-15.95,-16.37,0,*72
1501538541.62,21573,21.63,75036.3,8.87,-16.03,-16.51,0,*7F
1501538542.81,21574,21.63,75040.5,8.87,-16.03,-16.41,0,*79
1501538544.07,21575,21.63,75040.3,8.85,-16.13,-16.55,0,*7E
1501538545.27,21576,21.69,75042.3,8.87,-16.03,-16.41,0,*7B
1501538546.52,21577,21.69,75042.3,8.85,-16.09,-16.45,0,*76
1501538547.7,21578,21.69,75044.5,8.87,-15.99,-16.41,0,*75
1501538548.92,21579,21.69,75040.8,8.85,-15.99,-16.45,0,*72
1501538550.14,21580,21.69,75040.3,8.85,-15.95,-16.45,0,*78
1501538551.36,21581,21.63,75040.5,8.85,-15.95,-16.41,0,*7D
1501538552.58,21582,21.69,75040.8,8.85,-15.99,-16.41,0,*72
1501538553.8,21583,21.63,75038.5,8.85,-15.95,-16.37,0,*7E
1501538555.0,21584,21.63,75040.5,8.87,-15.95,-16.41,0,*7A
1501538556.21,21585,21.63,75042.3,8.85,-15.99,-16.45,0,*71
1501538557.41,21586,21.63,75036.3,8.87,-15.95,-16.37,0,*79
1501538558.6,21587,21.63,75040.8,8.87,-16.03,-16.41,0,*75
1501538559.83,21588,21.63,75040.0,8.85,-15.95,-16.41,0,*74
1501538561.05,21589,21.63,75038.3,8.85,-15.99,-16.41,0,*79
1501538562.29,21590,21.63,75042.0,8.87,-15.89,-16.31,0,*75
1501538563.51,21591,21.69,75042.5,8.87,-15.89,-16.37,0,*72
1501538564.74,21592,21.69,75042.3,8.85,-15.95,-16.41,0,*7F
1501538565.98,21593,21.69,75042.3,8.85,-15.95,-16.27,0,*7E
1501538567.21,21594,21.63,75040.3,8.87,-15.95,-16.31,0,*7C
1501538568.45,21595,21.63,75040.5,8.87,-15.81,-16.23,0,*7B
1501538569.7,21596,21.69,75042.5,8.85,-15.85,-16.41,0,*7A
1501538570.92,21597,21.63,75040.5,8.85,-15.95,-16.41,0,*7A
1501538572.17,21598,21.69,75042.5,8.87,-15.89,-16.31,0,*7D
1501538573.37,21599,21.69,75042.5,8.87,-15.95,-16.41,0,*76
1501538574.59,21600,21.69,75042.3,8.87,-15.89,-16.37,0,*79
1501538575.8,21601,21.63,75040.5,8.87,-15.81,-16.37,0,*70
1501538576.99,21602,21.69,75040.8,8.87,-15.95,-16.37,0,*76
1501538578.19,21603,21.63,75042.5,8.87,-15.95,-16.37,0,*77
1501538579.38,21604,21.69,75040.3,8.87,-15.95,-16.37,0,*70
1501538580.58,21605,21.69,75044.0,8.87,-15.95,-16.41,0,*70
1501538581.77,21606,21.63,75040.8,8.87,-15.95,-16.41,0,*73
1501538582.97,21607,21.63,75040.8,8.87,-15.95,-16.37,0,*73
1501538584.21,21608,21.63,75040.8,8.87,-15.89,-16.31,0,*77
1501538585.43,21609,21.69,75042.5,8.85,-15.95,-16.37,0,*7F
1501538586.68,21610,21.63,75042.5,8.89,-15.89,-16.37,0,*76
1501538587.9,21611,21.63,75040.3,8.87,-15.89,-16.37,0,*79
1501538589.14,21612,21.69,75042.8,8.87,-15.89,-16.31,0,*7C
1501538590.39,21613,21.69,75042.5,8.87,-15.89,-16.23,0,*7E
1501538591.63,21614,21.63,75042.3,8.87,-15.81,-16.31,0,*72
1501538592.87,21615,21.63,75042.3,8.87,-15.81,-16.31,0,*73
1501538594.09,21616,21.63,75040.5,8.87,-15.89,-16.37,0,*7E
1501538595.36,21617,21.63,75040.8,8.85,-15.81,-16.27,0,*74
1501538596.61,21618,21.69,75044.0,8.87,-15.81,-16.23,0,*7D
1501538597.88,21619,21.63,75042.3,8.85,-15.85,-16.27,0,*7E
1501538599.13,21620,21.63,75042.3,8.89,-15.75,-16.23,0,*73
1501538600.4,21621,21.63,75040.3,8.89,-15.81,-16.31,0,*7A
1501538601.67,21622,21.63,75040.3,8.89,-15.81,-16.23,0,*7A
1501538602.94,21623,21.63,75040.5,8.89,-15.89,-16.31,0,*70
1501538604.21,21624,21.63,75040.5,8.89,-15.81,-16.31,0,*7F
1501538605.47,21625,21.69,75042.5,8.89,-15.81,-16.23,0,*7D
1501538606.71,21626,21.63,75040.5,8.87,-15.81,-16.31,0,*73
1501538607.96,21627,21.63,75042.3,8.89,-15.75,-16.23,0,*74
1501538609.21,21628,21.63,75040.5,8.87,-15.81,-16.23,0,*7E
1501538610.45,21629,21.63,75042.5,8.87,-15.89,-16.31,0,*74
1501538611.72,21630,21.63,75038.5,8.89,-15.81,-16.23,0,*79
1501538612.94,21631,21.63,75040.8,8.87,-15.95,-16.31,0,*70
1501538614.18,21632,21.63,75040.3,8.89,-15.89,-16.37,0,*76
1501538615.45,21633,21.63,75042.5,8.89,-15.81,-16.23,0,*7A
1501538616.68,21634,21.63,75040.3,8.91,-15.75,-16.17,0,*78
1501538617.95,21635,21.63,75040.0,8.89,-15.81,-16.23,0,*7C
1501538619.2,21636,21.69,75046.0,8.91,-15.85,-16.27,0,*76
1501538620.45,21637,21.63,75040.0,8.91,-15.89,-16.17,0,*78
1501538621.7,21638,21.63,75042.8,8.89,-15.75,-16.23,0,*7A
1501538622.92,21639,21.69,75042.5,8.91,-15.71,-16.31,0,*75
1501538624.15,21640,21.63,75042.5,8.91,-15.75,-16.17,0,*7B
1501538625.4,21641,21.63,75042.3,8.89,-15.75,-16.23,0,*74
1501538626.62,21642,21.63,75042.0,8.91,-15.71,-16.17,0,*7D
1501538627.85,21643,21.63,75040.0,8.91,-15.75,-16.17,0,*78
1501538629.08,21644,21.69,75044.0,8.91,-15.75,-16.23,0,*78
1501538630.3,21645,21.69,75042.8,8.91,-15.75,-16.27,0,*7D
1501538631.53,21646,21.63,75040.0,8.91,-15.75,-16.27,0,*7E
1501538632.8,21647,21.63,75040.3,8.89,-15.81,-16.27,0,*7D
1501538634.07,21648,21.63,75042.0,8.89,-15.81,-16.23,0,*76
1501538635.29,21649,21.63,75040.8,8.91,-15.75,-16.27,0,*71
1501538636.54,21650,21.63,75042.3,8.89,-15.75,-16.31,0,*77
1501538637.79,21651,21.63,75042.3,8.89,-15.75,-16.17,0,*72
1501538639.02,21652,21.63,75042.3,8.91,-15.75,-16.27,0,*7B
1501538640.24,21653,21.63,75038.3,8.91,-15.71,-16.17,0,*7D
1501538641.51,21654,21.63,75042.3,8.89,-15.81,-16.23,0,*7B
1501538642.74,21655,21.63,75040.5,8.91,-15.75,-16.17,0,*7F
1501538643.99,21656,21.63,75040.8,8.89,-15.75,-16.23,0,*72
1501538645.24,21657,21.63,75042.8,8.91,-15.85,-16.31,0,*76
1501538646.49,21658,21.63,75040.0,8.89,-15.75,-16.23,0,*7C
1501538647.73,21659,21.69,75042.5,8.91,-15.89,-16.31,0,*74
1501538648.98,21660,21.63,75042.5,8.91,-15.89,-16.31,0,*7E
1501538650.2,21661,21.63,75040.5,8.91,-15.71,-16.27,0,*7F
1501538651.43,21662,21.63,75042.3,8.91,-15.75,-16.27,0,*78
1501538652.65,21663,21.63,75040.8,8.91,-15.75,-16.27,0,*79
1501538653.9,21664,21.63,75040.3,8.91,-15.85,-16.31,0,*76
1501538655.14,21665,21.69,75040.5,8.89,-15.95,-16.31,0,*7F
1501538656.39,21666,21.63,75040.3,8.91,-15.85,-16.31,0,*74
1501538657.64,21667,21.63,75040.3,8.89,-15.95,-16.31,0,*7D
1501538658.89,21668,21.69,75046.0,8.91,-15.85,-16.17,0,*7E
1501538660.11,21669,21.63,75042.3,8.91,-15.75,-16.27,0,*73
1501538661.36,21670,21.63,75042.3,8.89,-15.89,-16.37,0,*70
1501538662.58,21671,21.63,75042.5,8.91,-15.75,-16.27,0,*7A
1501538663.83,21672,21.63,75040.8,8.91,-15.81,-16.31,0,*75
1501538665.07,21673,21.63,75040.5,8.91,-15.85,-16.27,0,*77
1501538666.3,21674,21.69,75042.8,8.91,-15.71,-16.17,0,*78
1501538667.53,21675,21.63,75040.8,8.91,-15.71,-16.17,0,*79
1501538668.75,21676,21.63,75042.3,8.91,-15.71,-16.17,0,*7A
1501538670.03,21677,21.63,75040.0,8.89,-15.89,-16.17,0,*75
1501538671.28,21678,21.63,75040.0,8.91,-15.89,-16.31,0,*77
1501538672.5,21679,21.63,75040.5,8.89,-15.95,-16.37,0,*74
1501538673.75,21680,21.63,75042.0,8.93,-15.75,-16.27,0,*76
1501538675.0,21681,21.63,75040.0,8.91,-15.85,-16.17,0,*79
1501538676.25,21682,21.63,75042.5,8.91,-15.89,-16.31,0,*72
1501538677.49,21683,21.63,75042.3,8.91,-15.85,-16.31,0,*7F
1501538678.74,21684,21.63,75040.3,8.91,-15.85,-16.27,0,*7F
1501538679.99,21685,21.63,75038.8,8.91,-15.85,-16.27,0,*7E
1501538681.24,21686,21.63,75040.5,8.91,-15.85,-16.31,0,*7A
1501538682.48,21687,21.63,75042.3,8.91,-15.89,-16.31,0,*77
1501538683.7,21688,21.63,75044.3,8.91,-15.99,-16.27,0,*7E
1501538684.95,21689,21.63,75044.0,8.91,-15.89,-16.31,0,*79
1501538686.19,21690,21.69,75044.8,8.91,-15.85,-16.27,0,*7A
1501538687.42,21691,21.63,75040.5,8.91,-15.75,-16.27,0,*74
1501538688.65,21692,21.63,75044.0,8.91,-15.71,-16.17,0,*70
1501538689.87,21693,21.63,75040.3,8.91,-15.71,-16.27,0,*72
1501538691.11,21694,21.63,75040.0,8.93,-15.75,-16.31,0,*74
1501538692.39,21695,21.69,75044.5,8.93,-15.85,-16.31,0,*7A
1501538693.66,21696,21.63,75042.8,8.93,-15.85,-16.31,0,*79
1501538694.91,21697,21.63,75040.5,8.93,-15.75,-16.17,0,*73
1501538696.14,21698,21.63,75042.3,8.91,-15.75,-16.27,0,*7D
1501538697.41,21699,21.63,75042.5,8.93,-15.85,-16.31,0,*76
1501538698.65,21700,21.63,75040.8,8.93,-15.85,-16.37,0,*71
1501538699.92,21701,21.63,75042.0,8.93,-15.89,-16.31,0,*7A
1501538701.17,21702,21.63,75046.0,8.91,-15.85,-16.31,0,*77
1501538702.36,21703,21.63,75040.0,8.91,-15.99,-16.37,0,*7D
1501538703.58,21704,21.63,75042.3,8.91,-15.85,-16.37,0,*77
1501538704.83,21705,21.63,75044.3,8.91,-15.85,-16.31,0,*70
1501538706.08,21706,21.63,75040.3,8.91,-15.85,-16.27,0,*74
1501538707.32,21707,21.63,75042.5,8.91,-15.85,-16.27,0,*75
1501538708.57,21708,21.63,75042.5,8.91,-15.85,-16.27,0,*7A
1501538709.82,21709,21.63,75042.0,8.91,-15.89,-16.31,0,*70
1501538711.07,21710,21.63,75044.5,8.91,-15.89,-16.31,0,*78
1501538712.32,21711,21.63,75038.8,8.91,-15.85,-16.17,0,*71
1501538713.57,21712,21.63,75042.5,8.91,-15.89,-16.31,0,*7A
1501538714.84,21713,21.63,75044.0,8.93,-15.89,-16.31,0,*79
1501538716.12,21714,21.63,75036.8,8.93,-15.85,-16.17,0,*76
1501538717.36,21715,21.69,75046.5,8.93,-15.71,-16.27,0,*7F
1501538718.63,21716,21.63,75044.0,8.93,-15.85,-16.27,0,*77
1501538719.88,21717,21.63,75042.0,8.93,-15.89,-16.37,0,*7B
1501538721.09,21718,21.63,75040.8,8.93,-15.99,-16.37,0,*75
1501538722.34,21719,21.63,75042.5,8.93,-15.85,-16.37,0,*79
1501538723.58,21720,21.63,75042.5,8.93,-15.89,-16.37,0,*7F
1501538724.8,21721,21.63,75042.5,8.93,-15.99,-16.37,0,*7F
1501538726.04,21722,21.63,75046.0,8.93,-15.89,-16.37,0,*7D
1501538727.31,21723,21.63,75044.8,8.93,-15.85,-16.31,0,*76
1501538728.58,21724,21.63,75040.3,8.93,-15.89,-16.27,0,*7A
1501538729.83,21725,21.63,75040.3,8.95,-15.81,-16.31,0,*72
1501538731.07,21726,21.63,75040.8,8.95,-15.89,-16.27,0,*7E
1501538732.29,21727,21.63,75046.5,8.93,-15.99,-16.37,0,*79
1501538733.5,21728,21.63,75046.5,8.93,-15.99,-16.37,0,*76
1501538734.71,21729,21.63,75040.8,8.93,-15.99,-16.37,0,*77
1501538735.95,21730,21.63,75040.0,8.93,-15.99,-16.31,0,*79
1501538737.13,21731,21.63,75042.3,8.91,-15.99,-16.45,0,*79
1501538738.34,21732,21.63,75046.0,8.93,-15.99,-16.45,0,*78
1501538739.56,21733,21.63,75040.8,8.93,-15.99,-16.37,0,*7C
1501538740.77,21734,21.63,75044.3,8.93,-15.99,-16.37,0,*7B
1501538741.96,21735,21.63,75042.0,8.91,-15.99,-16.37,0,*78
1501538743.15,21736,21.63,75042.5,8.91,-15.99,-16.37,0,*7B
1501538744.34,21737,21.63,75044.3,8.91,-16.03,-16.45,0,*7F
1501538745.55,21738,21.63,75042.8,8.91,-15.99,-16.51,0,*75
1501538746.74,21739,21.63,75042.8,8.91,-15.99,-16.37,0,*74
1501538747.93,21740,21.63,75042.5,8.91,-15.99,-16.37,0,*7A
1501538749.15,21741,21.63,75042.3,8.91,-15.89,-16.37,0,*7A
1501538750.38,21742,21.63,75042.8,8.91,-15.75,-16.17,0,*78
1501538751.6,21743,21.63,75040.5,8.91,-15.75,-16.27,0,*7A
1501538752.85,21744,21.63,75042.5,8.89,-16.03,-16.51,0,*77
1501538754.09,21745,21.63,75040.8,8.89,-16.03,-16.51,0,*76
1501538755.33,21746,21.63,75042.0,8.89,-16.03,-16.31,0,*73
1501538756.52,21747,21.63,75042.3,8.91,-15.99,-16.37,0,*7D
1501538757.74,21748,21.63,75040.8,8.91,-15.89,-16.37,0,*73
1501538758.99,21749,21.63,75046.0,8.91,-15.85,-16.31,0,*78
1501538760.22,21750,21.63,75042.5,8.91,-15.71,-16.17,0,*7F
1501538761.41,21751,21.63,75042.8,8.91,-15.99,-16.37,0,*7A
1501538762.65,21752,21.63,75040.5,8.91,-15.85,-16.31,0,*72
1501538763.87,21753,21.63,75042.5,8.91,-15.89,-16.37,0,*79
1501538765.1,21754,21.63,75044.3,8.89,-16.03,-16.41,0,*77
1501538766.34,21755,21.63,75042.0,8.89,-15.89,-16.37,0,*76
1501538767.59,21756,21.63,75040.8,8.91,-15.89,-16.31,0,*7A
1501538768.83,21757,21.63,75042.0,8.91,-15.89,-16.31,0,*7B
1501538770.09,21758,21.63,75040.8,8.91,-15.85,-16.17,0,*7C
1501538771.31,21759,21.63,75042.3,8.91,-15.71,-16.17,0,*76
1501538772.57,21760,21.63,75044.3,8.91,-15.89,-16.17,0,*7B
1501538773.82,21761,21.63,75042.5,8.91,-15.85,-16.17,0,*76
1501538775.04,21762,21.63,75044.5,8.91,-15.71,-16.13,0,*7A
1501538776.27,21763,21.63,75040.3,8.91,-15.75,-16.17,0,*7B
1501538777.5,21764,21.63,75042.5,8.91,-15.75,-16.17,0,*7C
1501538778.77,21765,21.63,75042.5,8.89,-15.81,-16.23,0,*78
1501538780.0,21766,21.63,75040.8,8.91,-15.75,-16.17,0,*7E
1501538781.23,21767,21.63,75042.5,8.91,-15.75,-16.27,0,*7C
1501538782.45,21768,21.63,75042.8,8.91,-15.75,-16.27,0,*73
1501538783.7,21769,21.63,75042.0,8.91,-15.85,-16.27,0,*7D
1501538784.91,21770,21.63,75044.3,8.91,-15.99,-16.31,0,*7F
1501538786.13,21771,21.63,75042.5,8.91,-15.99,-16.31,0,*7E
1501538787.35,21772,21.63,75042.5,8.89,-15.95,-16.37,0,*7E
1501538788.62,21773,21.63,75040.3,8.89,-15.89,-16.23,0,*77
1501538789.84,21774,21.63,75042.3,8.91,-15.75,-16.27,0,*7E
1501538791.09,21775,21.63,75042.8,8.91,-15.89,-16.27,0,*7C
1501538792.34,21776,21.63,75044.5,8.91,-15.85,-16.27,0,*73
1501538793.56,21777,21.63,75044.5,8.89,-15.95,-16.37,0,*7B
1501538794.8,21778,21.63,75046.0,8.89,-15.95,-16.31,0,*72
1501538796.05,21779,21.63,75040.3,8.91,-15.85,-16.31,0,*7B
1501538797.28,21780,21.63,75042.5,8.91,-15.75,-16.17,0,*76
1501538798.53,21781,21.63,75042.3,8.91,-15.85,-16.27,0,*7B
1501538799.8,21782,21.63,75040.3,8.89,-15.81,-16.31,0,*72
1501538801.06,21783,21.63,75044.8,8.89,-15.81,-16.31,0,*73
1501538802.29,21784,21.63,75040.3,8.91,-15.75,-16.17,0,*72
1501538803.54,21785,21.63,75046.0,8.89,-15.75,-16.23,0,*7D
1501538804.77,21786,21.63,75044.8,8.91,-15.71,-16.17,0,*74
1501538806.0,21787,21.63,75044.5,8.91,-15.71,-16.17,0,*75
1501538807.24,21788,21.63,75042.3,8.89,-15.75,-16.23,0,*70
1501538808.51,21789,21.63,75046.3,8.89,-15.81,-16.23,0,*7A
1501538809.74,21790,21.63,75040.0,8.91,-15.75,-16.27,0,*74
1501538810.99,21791,21.63,75044.5,8.91,-15.85,-16.27,0,*7A
1501538812.21,21792,21.63,75044.5,8.91,-15.75,-16.27,0,*76
1501538813.44,21793,21.63,75042.3,8.91,-15.71,-16.17,0,*70
1501538814.66,21794,21.63,75044.5,8.91,-15.71,-16.17,0,*77
1501538815.91,21795,21.63,75040.3,8.89,-15.75,-16.23,0,*7C
1501538817.16,21796,21.63,75042.3,8.89,-15.75,-16.23,0,*7F
1501538818.39,21797,21.63,75040.5,8.91,-15.71,-16.17,0,*74
1501538819.62,21798,21.63,75040.5,8.91,-15.75,-16.17,0,*7F
1501538820.84,21799,21.63,75042.3,8.91,-15.71,-16.17,0,*7A
1501538822.07,21800,21.63,75042.5,8.91,-15.71,-16.13,0,*71
1501538823.29,21801,21.63,75042.5,8.91,-15.75,-16.17,0,*70
1501538824.52,21802,21.63,75042.0,8.91,-15.63,-16.13,0,*70
1501538825.74,21803,21.63,75046.0,8.91,-15.63,-16.13,0,*71
1501538826.96,21804,21.63,75042.5,8.91,-15.71,-16.13,0,*75
1501538828.19,21805,21.63,75042.3,8.91,-15.71,-16.13,0,*74
1501538829.44,21806,21.63,75044.3,8.89,-15.75,-16.09,0,*71
1501538830.67,21807,21.63,75042.0,8.91,-15.71,-16.13,0,*76
1501538831.89,21808,21.63,75044.3,8.91,-15.71,-16.13,0,*79
1501538833.11,21809,21.63,75040.5,8.91,-15.71,-16.13,0,*78
1501538834.34,21810,21.63,75042.5,8.91,-15.75,-16.09,0,*7F
1501538835.56,21811,21.63,75044.3,8.91,-15.71,-16.13,0,*71
1501538836.79,21812,21.63,75042.5,8.91,-15.71,-16.13,0,*72
1501538838.02,21813,21.63,75040.5,8.91,-15.75,-16.17,0,*73
1501538839.24,21814,21.63,75046.8,8.91,-15.71,-16.13,0,*74
1501538840.49,21815,21.63,75042.8,8.93,-15.75,-16.17,0,*77
1501538841.74,21816,21.63,75040.3,8.93,-15.71,-16.13,0,*74
1501538842.99,21817,21.63,75040.5,8.93,-15.71,-16.13,0,*75
1501538844.21,21818,21.63,75042.3,8.93,-15.71,-16.03,0,*7B
1501538845.44,21819,21.63,75040.0,8.91,-15.75,-16.13,0,*7D
1501538846.68,21820,21.63,75042.0,8.93,-15.71,-16.13,0,*71
1501538847.91,21821,21.63,75042.3,8.91,-15.71,-16.13,0,*72
1501538849.13,21822,21.63,75040.8,8.93,-15.71,-16.03,0,*72
1501538850.35,21823,21.63,75042.0,8.93,-15.63,-16.03,0,*70
1501538851.6,21824,21.63,75042.0,8.93,-15.63,-16.13,0,*76
1501538852.85,21825,21.63,75042.0,8.93,-15.63,-16.13,0,*77
1501538854.09,21826,21.63,75046.0,8.93,-15.71,-16.13,0,*77
1501538855.34,21827,21.63,75042.0,8.93,-15.71,-16.13,0,*76
1501538856.59,21828,21.63,75040.3,8.93,-15.71,-16.13,0,*79
1501538857.84,21829,21.63,75042.8,8.93,-15.75,-16.13,0,*7C
1501538859.11,21830,21.63,75042.5,8.93,-15.85,-16.27,0,*7C
1501538860.36,21831,21.63,75042.3,8.91,-15.89,-16.17,0,*70
1501538861.62,21832,21.63,75046.0,8.91,-15.85,-16.17,0,*7F
1501538862.87,21833,21.63,75040.5,8.93,-15.71,-16.17,0,*77
1501538864.11,21834,21.63,75042.0,8.93,-15.71,-16.13,0,*74
1501538865.36,21835,21.63,75040.8,8.93,-15.71,-16.13,0,*75
1501538866.58,21836,21.63,75044.5,8.91,-15.71,-16.13,0,*74
1501538867.81,21837,21.63,75040.5,8.91,-15.71,-16.13,0,*75
1501538869.0,21838,21.63,75042.8,8.91,-15.71,-16.03,0,*7B
1501538870.26,21839,21.63,75044.3,8.93,-15.75,-16.13,0,*7D
1501538871.5,21840,21.63,75042.5,8.93,-15.63,-16.13,0,*74
1501538872.75,21841,21.63,75040.8,8.93,-15.71,-16.13,0,*76
1501538874.0,21842,21.63,75042.0,8.93,-15.63,-16.13,0,*76
1501538875.25,21843,21.63,75040.5,8.93,-15.63,-16.13,0,*77
1501538876.49,21844,21.63,75038.5,8.93,-15.71,-16.13,0,*73
1501538877.74,21845,21.63,75042.0,8.93,-15.57,-16.03,0,*77
1501538878.96,21846,21.63,75040.0,8.93,-15.63,-16.03,0,*73
1501538880.21,21847,21.63,75042.5,8.93,-15.63,-16.13,0,*73
1501538881.43,21848,21.63,75040.3,8.93,-15.63,-15.99,0,*7D
1501538882.65,21849,21.63,75042.8,8.93,-15.63,-16.03,0,*7C
1501538883.9,21850,21.63,75042.8,8.93,-15.71,-16.13,0,*76
1501538885.14,21851,21.63,75042.8,8.95,-15.57,-16.09,0,*7E
1501538886.39,21852,21.63,75042.3,8.93,-15.63,-16.13,0,*77
1501538887.64,21853,21.63,75040.5,8.93,-15.75,-16.13,0,*71
1501538888.89,21854,21.63,75040.8,8.93,-15.75,-16.13,0,*76
1501538890.14,21855,21.63,75040.3,8.93,-15.75,-16.13,0,*77
1501538891.39,21856,21.63,75042.3,8.93,-15.71,-16.13,0,*70
1501538892.64,21857,21.63,75042.5,8.93,-15.71,-16.13,0,*71
1501538893.86,21858,21.63,75042.0,8.93,-15.71,-16.03,0,*7F
1501538895.11,21859,21.63,75042.5,8.93,-15.75,-16.13,0,*7B
1501538896.34,21860,21.63,75042.8,8.91,-15.75,-16.17,0,*77
1501538897.54,21861,21.63,75040.8,8.91,-15.71,-16.03,0,*77
1501538898.78,21862,21.63,75040.8,8.93,-15.71,-16.13,0,*77
1501538900.03,21863,21.63,75040.0,8.93,-15.71,-16.13,0,*76
1501538901.28,21864,21.63,75042.5,8.93,-15.71,-16.13,0,*71
1501538902.47,21865,21.63,75040.5,8.91,-15.71,-16.03,0,*73
1501538903.69,21866,21.63,75040.3,8.93,-15.71,-16.03,0,*72